Flag for Germany Past Weather in Frankenthal (Pfalz), Rhineland-Palatinate, Germany — Yesterday and Last 2 Weeks

Now
62 °F

Clear.


Feels Like: 62 °F
Forecast: 68 / 92 °F
Wind: 2 mph from Northwest

Location: Wiesbaden Airport

Current Time: Aug 26, 2016 at 5:36:39 AM

Latest Report: Aug 26, 2016 at 4:58 AM


Visibility: N/A

Pressure: 30.01 "Hg

Humidity: 68%

Dew Point: 51 °F

Location of Frankenthal (Pfalz)Location

Past Weather in Frankenthal (Pfalz) — Graph

°F

Frankenthal (Pfalz) Temperature Yesterday

Maximum temperature yesterday: 90 °F (at 4:58 PM)
Minimum temperature yesterday: 68 °F (at 6:58 AM)
Average temperature yesterday: 77 °F

High & Low Weather Summary for the Past Weeks

 TemperatureHumidityPressure
High90 °F (Aug 25, 4:58 PM)89% (Aug 22, 6:58 AM)30.39 "Hg (Aug 22, 6:58 AM)
Low46 °F (Aug 11, 3:58 AM)22% (Aug 16, 5:58 PM)29.79 "Hg (Aug 18, 5:58 PM)
Average67 °F58%30.10 "Hg
* Reported Aug 11 3:58 AM — Aug 26 3:58 AM, Frankenthal (Pfalz), Weather by CustomWeather, © 2016

Note: Actual official high and low records may vary slightly from our data, if they occured in-between our weather recording intervals... More about our weather records

Advertising

Frankenthal (Pfalz) Weather History for the Previous 24 Hours

Scroll right to see more
 ConditionsComfort  
Time TempWeatherWind HumidityBarometerVisibility
3:58 AM
Fri, Aug 26
64 °FClear.No wind64%30.00 "HgN/A
2:58 AM64 °FClear.1 mph64%29.98 "HgN/A
1:58 AM65 °FClear.No wind63%30.00 "HgN/A
12:58 AM66 °FClear.3 mph60%30.00 "HgN/A
11:58 PM
Thu, Aug 25
72 °FClear.1 mph50%29.99 "HgN/A
10:58 PM69 °FClear.No wind58%29.99 "HgN/A
9:58 PM71 °FClear.2 mph53%30.00 "HgN/A
8:58 PM79 °FSunny.No wind39%29.99 "HgN/A
7:58 PM84 °FSunny.5 mph33%29.97 "HgN/A
6:58 PM88 °FSunny.6 mph27%29.97 "HgN/A
5:58 PM90 °FSunny.12 mph26%29.98 "HgN/A
4:58 PM90 °FSunny.10 mph26%30.00 "HgN/A
3:58 PM88 °FSunny.10 mph27%30.01 "HgN/A
2:58 PM88 °FSunny.8 mph27%30.03 "HgN/A
1:58 PM86 °FSunny.7 mph31%30.04 "HgN/A
12:58 PM83 °FSunny.7 mph35%30.06 "HgN/A
11:58 AM80 °FSunny.10 mph39%30.08 "HgN/A
10:58 AM77 °FSunny.14 mph44%30.09 "HgN/A
9:58 AM75 °FSunny.13 mph47%30.09 "HgN/A
8:58 AM73 °FSunny.12 mph52%30.09 "HgN/A
7:58 AM71 °FSunny.9 mph54%30.09 "HgN/A
6:58 AM68 °FClear.9 mph58%30.11 "HgN/A
5:58 AM70 °FClear.7 mph57%30.09 "HgN/A
Weather by CustomWeather, © 2016

See weather overviewHow to use our weather pages